Location: *
(45.1961°N, 1.9694°E)
Time: 18:25:18
(UTC+00:00)

Cosmos 1536 - Pass Details

Date: 25 August 2019
Orbit: 540 x 559 km, 82.5° (Epoch: 15 October)

Event Time Altitude Azimuth Distance (km) Brightness Sun altitude
Exits shadow 20:58:21 - 214° (SW) 2,027 5.6 -21.6°
Reaches altitude 10° 20:58:51 10° 217° (SW) 1,845 5.4 -21.6°
Maximum altitude 21:02:36 36° 284° (WNW) 907 4.4 -22.1°
Drops below altitude 10° 21:06:23 10° 352° (N) 1,856 6.2 -22.6°
Sets 21:08:42 0° 1° (N) 2,755 7.0 -22.9°
